Keene, NH

12:47 AM EDT on October 17, 2017 (GMT -0400)
Dillant-Hopkins

Weather History for KEEN - October, 2013

Change the Weather History Date:

Thursday, October 31, 2013

  Actual Average Record
Temperature  
Mean Temperature 43 °F -  
Max Temperature 60 °F 54 °F 75 °F (1946)
Min Temperature 26 °F 29 °F 16 °F (1966)
Degree Days  
Heating Degree Days 22    
Moisture  
Dew Point 35 °F    
Average Humidity 82    
Maximum Humidity 88    
Minimum Humidity 74    
Precipitation  
Precipitation 0.29 in - - ()
Sea Level Pressure  
Sea Level Pressure 30.06 in    
Wind  
Wind Speed 1 mph (South)    
Max Wind Speed 16 mph    
Max Gust Speed 23 mph    
Visibility 4 miles    
Events      
Averages and records for this station are not official NWS values.
T = Trace of Precipitation, MM = Missing Value Source: NWS Daily Summary

Daily Weather History Graph

Daily Weather History Graph

Search for Another Location

Airport or City:

Trip Planner

Search our weather history database for the weather conditions in past years. The results will help you decide how hot, cold, wet, or windy it might be!

Date:

Astronomy

Oct. 31, 2013 Rise Set
Actual Time 7:22 AM EDT 5:42 PM EDT
Civil Twilight 6:52 AM EDT 6:11 PM EDT
Nautical Twilight 6:19 AM EDT 6:45 PM EDT
Astronomical Twilight 5:46 AM EDT 7:18 PM EDT
Moon 4:04 AM EDT (10/31) 4:02 PM EDT (10/31)
Length of Visible Light 11h 18m
Length of Day
10h 19m
Waning Crescent, 10% of the Moon is Illuminated
Oct 31
Waning Crescent
Nov 3
New
Nov 10
First Quarter
Nov 17
Full
Nov 25
Last Quarter

Hourly Weather History & Observations

Time (EDT) Temp. Windchill Dew Point Humidity Pressure Visibility Wind Dir Wind Speed Gust Speed Precip Events Conditions
12:15 AM 30.2 °F - 24.8 °F 80% 30.24 in 5.0 mi Calm Calm - N/A   Clear
12:35 AM 30.2 °F - 24.8 °F 80% 30.24 in 6.0 mi Calm Calm - N/A   Clear
12:55 AM 30.2 °F - 24.8 °F 80% 30.24 in 2.5 mi Calm Calm - N/A   Clear
1:15 AM 30.2 °F - 24.8 °F 80% 30.24 in 1.5 mi Calm Calm - N/A   Clear
1:35 AM 28.4 °F - 24.8 °F 86% 30.24 in 2.5 mi Calm Calm - N/A   Clear
1:55 AM 30.2 °F - 24.8 °F 80% 30.23 in 4.0 mi Calm Calm - N/A   Clear
2:15 AM 28.4 °F - 24.8 °F 86% 30.23 in 5.0 mi Calm Calm - N/A   Clear
2:35 AM 28.4 °F 24.6 °F 24.8 °F 86% 30.22 in 7.0 mi SSW 3.5 mph - N/A   Clear
2:55 AM 28.4 °F 24.6 °F 23.0 °F 80% 30.22 in 8.0 mi SSW 3.5 mph - N/A   Clear
3:15 AM 28.4 °F - 24.8 °F 86% 30.22 in 9.0 mi Calm Calm - N/A   Clear
3:35 AM 28.4 °F - 21.2 °F 74% 30.21 in 7.0 mi Calm Calm - N/A   Clear
3:55 AM 28.4 °F - 24.8 °F 86% 30.20 in 6.0 mi Calm Calm - N/A   Clear
4:15 AM 28.4 °F - 23.0 °F 80% 30.19 in 10.0 mi Calm Calm - N/A   Clear
4:35 AM 28.4 °F - 23.0 °F 80% 30.18 in 9.0 mi Calm Calm - N/A   Clear
4:55 AM 28.4 °F - 21.2 °F 74% 30.19 in 6.0 mi Calm Calm - N/A   Clear
5:15 AM 28.4 °F 23.3 °F 21.2 °F 74% 30.19 in 8.0 mi SSW 4.6 mph - N/A   Clear
5:35 AM 26.6 °F 21.2 °F 21.2 °F 80% 30.20 in 9.0 mi SSW 4.6 mph - N/A   Mostly Cloudy
5:55 AM 28.4 °F - 23.0 °F 80% 30.19 in 9.0 mi Calm Calm - N/A   Overcast
6:15 AM 28.4 °F - 23.0 °F 80% 30.18 in 8.0 mi Calm Calm - N/A   Overcast
6:35 AM 30.2 °F - 24.8 °F 80% 30.19 in 8.0 mi Calm Calm - N/A   Overcast
6:55 AM 30.2 °F - 24.8 °F 80% 30.20 in 8.0 mi Calm Calm - N/A   Overcast
7:15 AM 30.2 °F - 24.8 °F 80% 30.19 in 9.0 mi Calm Calm - N/A   Overcast
7:35 AM 30.2 °F - 24.8 °F 80% 30.19 in 5.0 mi Calm Calm - N/A   Overcast
7:55 AM 30.2 °F - 24.8 °F 80% 30.18 in 5.0 mi Calm Calm - N/A   Overcast
8:15 AM 32.0 °F - 26.6 °F 80% 30.20 in 3.0 mi Calm Calm - N/A   Overcast
8:35 AM 32.0 °F - 26.6 °F 80% 30.20 in 1.5 mi Calm Calm - N/A   Overcast
8:55 AM 32.0 °F - 26.6 °F 80% 30.19 in 1.5 mi Calm Calm - N/A   Overcast
9:15 AM 33.8 °F - 28.4 °F 81% 30.18 in 0.8 mi Calm Calm - N/A   Overcast
9:35 AM 33.8 °F - 28.4 °F 81% 30.18 in 0.8 mi Calm Calm - N/A   Overcast
9:55 AM 35.6 °F - 30.2 °F 81% 30.17 in 1.0 mi Calm Calm - N/A   Overcast
10:15 AM 35.6 °F - 30.2 °F 81% 30.16 in 1.2 mi North - - N/A   Overcast
10:35 AM 35.6 °F - 30.2 °F 81% 30.15 in 2.0 mi North - - N/A   Overcast
10:55 AM 37.4 °F - 32.0 °F 81% 30.13 in 3.0 mi Calm Calm - N/A   Overcast
11:15 AM 37.4 °F - 32.0 °F 81% 30.12 in 3.0 mi Calm Calm - N/A   Overcast
11:35 AM 39.2 °F - 33.8 °F 81% 30.12 in 3.0 mi Calm Calm - N/A   Overcast
11:55 AM 39.2 °F - 33.8 °F 81% 30.11 in 3.0 mi Calm Calm - N/A   Overcast
12:15 PM 39.2 °F - 33.8 °F 81% 30.10 in 2.5 mi Calm Calm - N/A   Overcast
12:35 PM 39.2 °F - 33.8 °F 81% 30.09 in 1.0 mi Calm Calm - N/A   Overcast
12:55 PM 39.2 °F - 35.6 °F 87% 30.07 in 0.8 mi Calm Calm - N/A   Overcast
1:15 PM 41.0 °F - 35.6 °F 81% 30.06 in 1.0 mi Calm Calm - N/A   Overcast
1:35 PM 41.0 °F - 37.4 °F 87% 30.04 in 1.2 mi Calm Calm - N/A   Overcast
1:55 PM 42.8 °F - 37.4 °F 81% 30.02 in 1.5 mi Calm Calm - N/A   Overcast
2:15 PM 42.8 °F - 37.4 °F 81% 30.01 in 1.5 mi Calm Calm - N/A   Overcast
2:35 PM 42.8 °F - 37.4 °F 81% 30.03 in 1.8 mi Calm Calm - 0.03 in   Overcast
2:55 PM 44.6 °F - 39.2 °F 81% 30.00 in 1.2 mi Calm Calm - 0.05 in   Overcast
3:15 PM 44.6 °F - 41.0 °F 87% 30.00 in 1.5 mi Calm Calm - 0.01 in   Overcast
3:35 PM 46.4 °F - 41.0 °F 81% 29.98 in 2.5 mi Calm Calm - 0.02 in   Overcast
3:55 PM 46.4 °F - 42.8 °F 87% 29.98 in 3.0 mi Calm Calm - 0.02 in   Overcast
4:15 PM 48.2 °F - 42.8 °F 82% 29.97 in 2.5 mi Calm Calm - 0.01 in   Overcast
4:35 PM 48.2 °F - 42.8 °F 82% 29.96 in 1.5 mi Calm Calm - 0.01 in   Overcast
4:55 PM 48.2 °F - 44.6 °F 87% 29.95 in 1.2 mi Calm Calm - 0.02 in   Overcast
5:15 PM 48.2 °F - 42.8 °F 82% 29.94 in 1.2 mi Calm Calm - 0.01 in   Overcast
5:35 PM 48.2 °F - 44.6 °F 87% 29.93 in 1.0 mi Calm Calm - 0.02 in   Overcast
5:55 PM 48.2 °F - 44.6 °F 87% 29.92 in 1.5 mi Calm Calm - 0.03 in   Overcast
6:15 PM 48.2 °F - 44.6 °F 87% 29.91 in 1.8 mi Calm Calm - 0.01 in   Overcast
6:35 PM 48.2 °F - 44.6 °F 87% 29.91 in 2.0 mi Calm Calm - 0.01 in   Overcast
6:55 PM 48.2 °F - 44.6 °F 87% 29.91 in 1.8 mi Calm Calm - 0.01 in   Overcast
7:15 PM 48.2 °F - 44.6 °F 87% 29.91 in 1.8 mi Calm Calm - N/A   Overcast
7:35 PM 48.2 °F - 44.6 °F 87% 29.90 in 2.0 mi Calm Calm - N/A   Overcast
7:55 PM 48.2 °F - 44.6 °F 87% 29.88 in 2.0 mi Calm Calm - 0.01 in   Overcast
8:15 PM 48.2 °F - 44.6 °F 87% 29.88 in 1.8 mi Calm Calm - N/A   Overcast
8:35 PM 48.2 °F - 44.6 °F 87% 29.86 in 2.0 mi Calm Calm - 0.01 in   Overcast
8:55 PM 53.6 °F - 48.2 °F 82% 29.85 in 2.5 mi SSW 5.8 mph - 0.02 in   Overcast
9:15 PM 57.2 °F - 53.6 °F 88% 29.84 in 7.0 mi South 9.2 mph - 0.01 in   Overcast
9:35 PM 59.0 °F - 53.6 °F 82% 29.83 in 7.0 mi South 10.4 mph - 0.02 in   Overcast
9:55 PM 59.0 °F - 53.6 °F 82% 29.83 in 9.0 mi South 12.7 mph - 0.03 in   Overcast
10:15 PM 60.8 °F - 53.6 °F 77% 29.81 in 7.0 mi South 11.5 mph 17.3 mph 0.02 in   Overcast
10:35 PM 60.8 °F - 53.6 °F 77% 29.80 in 7.0 mi South 9.2 mph - 0.04 in   Overcast
10:55 PM 60.8 °F - 53.6 °F 77% 29.79 in 8.0 mi South 9.2 mph - 0.05 in   Overcast
11:15 PM 60.8 °F - 53.6 °F 77% 29.77 in 9.0 mi South 13.8 mph 17.3 mph 0.02 in   Overcast
11:35 PM 60.8 °F - 53.6 °F 77% 29.76 in 9.0 mi South 16.1 mph 23.0 mph 0.04 in   Overcast
11:55 PM 59.0 °F - 53.6 °F 82% 29.73 in 10.0 mi South 11.5 mph - 0.05 in   Overcast